www.pogodaiklimat.ru

Погода и климат >> Архив погоды >> Индия >> Okha


ПОГОДА в Okha

  • Прогноз погоды в Okha
  • Монитор погоды в Okha
  • Климат города

АРХИВ ПОГОДЫ в Okha

Время (UTC), дата Ветер
(напр.,м/с)
 
Видим.   Явления Облачность Т
(С)
Тd
(С)
f
(%)
Тe
(С)
Тes
(С)
Комфортность P
(гПа)
Po
(гПа)
Тmin
(С)
Tmax
(С)
R
(мм)
R24
(мм)
S
(см)
18 16.06 З 3 4000 м 3/3 600 м
[Sc]
+30.6 +25.5 74 +45 +45 опасность
перегрева
1003.7 1004.0
21 16.06 З 3 4000 м 3/3 600 м
[Sc]
+30.2 +25.5 76 +44 +44 опасность
перегрева
1003.1 1003.0
00 17.06 З 3 4000 м 3/3 600 м
[Sc]
+30.0 +12.7 35 +45 +45 опасность
перегрева
1002.3 1002.0
03 17.06 З 3 4000 м 3/3 600 м
[Sc]
+31.2 0.0 13 +28 +32 жарко 1003.6 1004.0 +29.3
06 17.06 З 3 4000 м 5/5 600 м
[Cu Sc]
+33.0 0.0 12 +30 +38 жарко 1004.4 1004.0
09 17.06 З 3 4000 м 4/4 600 м
[Cu Sc]
+33.2 0.0 12 +30 +39 жарко 1002.4 1002.0
12 17.06 З 3 4000 м 5/5 600 м
[Cu Sc]
+32.4 +13.6 32 +29 +31 жарко 1001.4 1001.0 +33.4
15 17.06 З 2 4000 м в посл. час морось 4/4 600 м
[Cu Sc]
+29.8 +27.0 85 +47 +47 опасность
перегрева
1001.6 1002.0 0.5
18 17.06 З 2 4000 м 4/4 600 м
[Cu Sc]
+29.8 +26.5 83 +46 +46 опасность
перегрева
1002.4 1002.0 0.5
21 17.06 З 2 4000 м 4/4 600 м
[Sc]
+29.4 +26.3 83 +45 +45 опасность
перегрева
1002.0 1002.0 0.5
00 18.06 З 3 4000 м 4/4 600 м
[Sc]
+29.2 +13.1 37 +44 +44 опасность
перегрева
1000.7 1001.0 0.5
03 18.06 З 3 4000 м 5/3 600 м
[Sc Ac trans]
+30.2 0.0 14 +27 +30 жарко 1002.9 1003.0 +29.0 0.5
06 18.06 З 3 4000 м 5/3 600 м
[Sc Ac trans]
+32.4 0.0 13 +29 +40 жарко 1003.5 1004.0
09 18.06 З 3 4000 м 5/5 600 м
[Cu Sc]
+32.8 0.0 12 +29 +37 жарко 1002.8 1003.0
12 18.06 З 3 4000 м 5/5 600 м
[Cu Sc]
+30.2 0.0 14 +27 +29 жарко 1001.3 1001.0 +33.5
15 18.06 З 3 4000 м 5/5 600 м
[Cu Sc]
+30.4 +12.8 34 +45 +45 опасность
перегрева
1002.3 1002.0
18 18.06 З 3 4000 м 4/4 600 м
[Cu Sc]
+29.8 +25.6 78 +44 +44 опасность
перегрева
1003.4 1003.0
21 18.06 З 2 4000 м 4/4 600 м
[Cu Sc]
+29.4 +25.7 81 +44 +44 опасность
перегрева
1003.2 1003.0
00 19.06 З 3 4000 м 4/4 600 м
[Cu Sc]
+29.0 +25.0 79 +42 +42 опасность
перегрева
1001.9 1002.0
03 19.06 З 3 4000 м 5/5 600 м
[Cu Sc]
+30.8 +12.4 32 +28 +30 жарко 1003.8 1004.0 +28.8
06 19.06 З 3 4000 м 3/3 600 м
[Sc]
+33.0 0.0 12 +30 +41 жарко 1004.3 1004.0
09 19.06 З 3 4000 м 3/3 600 м
[Sc]
+33.2 0.0 12 +30 +41 жарко 1003.2 1003.0
12 19.06 З 3 4000 м ясно +31.8 +12.7 31 +29 +32 жарко 1002.2 1002.0 +33.8
15 19.06 СЗ 2 4000 м ясно +30.0 +25.5 77 +44 +44 опасность
перегрева
1002.4 1002.0
18 19.06 З 3 4000 м 4/4 600 м
[Cu Sc]
+29.8 +25.9 80 +45 +45 опасность
перегрева
1003.6 1004.0
21 19.06 З 3 4000 м 4/4 600 м
[Cu Sc]
+29.4 +26.3 83 +45 +45 опасность
перегрева
1002.5 1003.0
00 20.06 СЗ 3 4000 м 5/5 600 м
[Cu Sc]
+29.6 +24.8 75 +42 +42 опасность
перегрева
1003.0 1003.0
03 20.06 СЗ 3 4000 м 6/6 600 м
[Cu Sc]
+30.6 0.0 14 +28 +29 жарко 1004.6 1005.0 +29.2
06 20.06 СЗ 3 4000 м 6/6 600 м
[Cu Sc]
+32.8 0.0 12 +29 +37 жарко 1004.7 1005.0
09 20.06 З 3 4000 м 5/5 600 м
[Cu Sc]
+33.4 0.0 12 +30 +38 жарко 1003.1 1003.0
12 20.06 З 3 4000 м 5/5 600 м
[Cu Sc]
+32.0 0.0 13 +29 +31 жарко 1002.0 1002.0 +33.6
15 20.06 З 4 4000 м 5/5 600 м
[Cu Sc]
+30.2 +12.8 34 +46 +46 опасность
перегрева
1002.8 1003.0
18 20.06 З 2 4000 м 4/4 600 м
[Cu Sc]
+29.8 +25.6 78 +44 +44 опасность
перегрева
1003.9 1004.0
21 20.06 З 2 4000 м 4/4 600 м
[Cu Sc]
+29.6 +25.7 80 +44 +44 опасность
перегрева
1004.1 1004.0
00 21.06 СЗ 3 4000 м 4/4 600 м
[Cu Sc]
+29.2 +25.2 79 +42 +42 опасность
перегрева
1003.0 1003.0
03 21.06 З 3 4000 м 5/5 600 м
[Cu Sc]
+30.6 +12.5 33 +28 +30 жарко 1004.1 1004.0 +29.0
06 21.06 З 3 4000 м 5/5 600 м
[Cu Sc]
+32.2 0.0 13 +29 +37 жарко 1004.1 1004.0
09 21.06 З 3 4000 м 5/5 600 м
[Sc]
+33.2 0.0 12 +30 +38 жарко 1002.7 1003.0
12 21.06 З 4 4000 м 5/5 600 м
[Cu Sc]
+32.0 +13.1 32 +29 +30 жарко 1001.1 1001.0 +33.8
15 21.06 З 3 4000 м 4/4 600 м
[Cu Sc]
+30.2 +26.0 78 +45 +45 опасность
перегрева
1002.3 1002.0
18 21.06 З 3 4000 м 4/4 600 м
[Cu Sc]
+30.0 +25.5 77 +44 +44 опасность
перегрева
1003.4 1003.0
21 21.06 СЗ 2 4000 м 4/4 600 м
[Cu Sc]
+29.6 +25.4 78 +43 +43 опасность
перегрева
1003.4 1003.0
00 22.06 З 3 4000 м 4/4 600 м
[Cu Sc]
+29.4 +12.7 36 +43 +43 опасность
перегрева
1002.7 1003.0
03 22.06 З 3 4000 м 5/5 600 м
[Cu Sc]
+30.6 0.0 14 +28 +30 жарко 1003.5 1004.0 +29.2
06 22.06 ЮЗ 3 4000 м 5/5 600 м
[Cu Sc]
+32.6 0.0 12 +29 +38 жарко 1003.6 1004.0
09 22.06 З 3 4000 м 6/6 600 м
[Cu Sc]
+33.4 0.0 12 +30 +36 жарко 1002.4 1002.0
12 22.06 З 5 4000 м 6/6 600 м
[Cu Sc]
+32.0 +12.9 31 +29 +30 жарко 1000.7 1001.0 +34.1
15 22.06 З 5 4000 м 5/5 600 м
[Cu Sc]
+30.8 +25.7 74 +45 +45 опасность
перегрева
1002.0 1002.0
18 22.06 З 3 4000 м 4/4 600 м
[Sc]
+30.2 +25.4 76 +44 +44 опасность
перегрева
1002.9 1003.0
21 22.06 З 3 4000 м 4/4 600 м
[Sc]
+29.8 +24.7 74 +42 +42 опасность
перегрева
1002.4 1002.0
00 23.06 З 3 4000 м 3/3 600 м
[Sc]
+29.8 +12.2 34 +43 +43 опасность
перегрева
1001.4 1001.0
03 23.06 З 3 4000 м 8/5 600 м
[Cu Sc Ci fib]
+31.0 0.0 14 +28 +30 жарко 1002.5 1003.0 +29.4
06 23.06 З 3 4000 м 6/6 600 м
[Cu Sc]
+33.0 0.0 12 +30 +37 жарко 1003.6 1004.0
09 23.06 З 4 4000 м 6/6 600 м
[Cu Sc]
+33.2 0.0 12 +30 +35 жарко 1002.4 1002.0
12 23.06 З 5 4000 м 8/3 600 м
[Cu Sc Ci fib]
+32.4 0.0 13 +29 +31 жарко 1000.7 1001.0 +34.0
15 23.06 З 5 4000 м 8/5 600 м
[Cu Sc Ci fib]
+30.6 +25.5 74 +45 +45 опасность
перегрева
1001.5 1002.0

 

Местоположение метеостанции Okha (Gujarat, Индия): широта 22.48 долгота 69.12 высота над уровнем моря 7 м.

В архиве по умолчанию представлена погода в Okha за последнюю неделю. Архивные данные за месяц целиком и за предыдущие месяцы, начиная с января 2011 года, Вы можете получить, выбрав интересующий диапазон дат из раскрывающегося списка и нажав кнопку "Ввод!".


*Определитесь, кто Вы:
робот инопланетянин человек

Внимание! Время в таблицах - всемирное. Для получения местного времени необходимо прибавить поправку, которая в Okha равна 5.5 ч.

Смотрите также архив погоды в соседних городах и на ближайших метеорологических станциях:

Погода в Dwarka (Gujarat, Индия) (13 км)
Погода в Mandvi (Gujarat, Индия) (41 км)
Погода в Naliya (Gujarat, Индия) (90 км)
Погода в Bhuj-Rudramata (Gujarat, Индия) (103 км)
Погода в Porbandar (Gujarat, Индия) (108 км)
Погода в Kandla (Gujarat, Индия) (123 км)
Погода в New Kandla (Gujarat, Индия) (127 км)
Погода в Rajkot (Gujarat, Индия) (172 км)
Погода в Veraval (Gujarat, Индия) (218 км)
Погода в Amreli (Gujarat, Индия) (238 км)

Пояснения к столбцам:

Ветер - указаны скорость ветра в м/с - средняя за 10 мин, порывы в срок и между сроками (в фигурных скобках) и направление, откуда дует ветер: С - северный, СВ - северо-восточный, В - восточный, ЮВ - юго-восточный, Ю - южный, ЮЗ - юго-западный, З - западный, СЗ - северо-западный.
Видимость - горизонтальная дальность видимости в метрах или километрах. При видимости от 1 до 10 км при отсутствии осадков обычно наблюдается дымка, при ухудшении видимости до 1 км и менее - туман. В сухую погоду видимость может ухудшаться дымом, пылью или мглою.
Явления - указаны атмосферные явления, наблюдавшиеся в срок или в последний час перед сроком; фигурными скобками обозначены явления, наблюдавшиеся между сроками (за 1-3 часа до срока); квадратными скобками обозначены град или гололедные отложения с указанием их диаметра в мм.
Облачность - указаны через наклонную черту общая и нижняя облачность в баллах и высота нижней границы облаков в метрах; квадратными скобками обозначены формы облаков: Ci - перистые, Cs - перисто-слоистые, Cc - перисто-кучевые, Ac - высококучевые, As - высокослоистые, Sc - слоисто-кучевые, Ns - слоисто-дождевые, Cu - кучевые, Cb - кучево-дождевые. Подробнее классификацию облаков см. в Атласе облаков (PDF).
T - Температура воздуха - температура, измеренная на высоте 2 м над землей.
Td - Температура точки росы - температура, при понижении до которой содержащийся в воздухе водяной пар достигнет насыщения.
f - Относительная влажность воздуха - влажноcть воздуха, измеренная на высоте 2 м над землей.
Te - Эффективная температура - температура, которую ощущает одетый по сезону человек в тени. Характеристика душности погоды. При расчете учитывается влияние влажности воздуха и скорости ветра на теплоощущения человека.
Tes - Эффективная температура на солнце - температура, которую ощущает человек, с поправкой на солнечный нагрев. Характеристика знойности погоды. Зависит от высоты солнца над горизонтом, облачности и скорости ветра. Ночью, в пасмурную погоду, а также при ветре 12 м/с и более поправка равна нулю.
P - Атмосферное давление - приведенное к уровню моря атмосферное давление.
Po - Атмосферное давление - измеренное на уровне метеостанции атмосферное давление.
Tmin - Минимальная температура - минимум температуры воздуха на высоте 2 м над землей.
Tmax - Максимальная температура - максимум температуры воздуха на высоте 2 м над землей.
R - Количество осадков - Количество выпавших осадков за период времени, мм. При наведении курсора мыши на число - период времени, за который выпало указанное количество осадков.
R24 - Количество осадков - Количество выпавших осадков за 24 часа, мм.
S - Снежный покров - Высота снежного покрова, см. При наведении курсора мыши на число - состояние снежного покрова и степень покрытия местности в баллах.